Weather History for Erie, PA

Change the Weather History Date:

Monday, July 1, 2013

  Actual Average Record
Temperature  
Mean Temperature 67 °F 71 °F  
Max Temperature 69 °F 79 °F 91 °F (1931)
Min Temperature 64 °F 62 °F 48 °F (1965)
Degree Days  
Heating Degree Days 0 1  
Month to date heating degree days 0 1  
Since 1 June heating degree days 68 62  
Since 1 July heating degree days 0 1  
Cooling Degree Days 2 6  
Month to date cooling degree days 2 6  
Year to date cooling degree days 205 168  
Since 1 June cooling degree days 120 129  
Growing Degree Days 16 (Base 50)    
Moisture  
Dew Point 63 °F    
Average Humidity 85    
Maximum Humidity 93    
Minimum Humidity 76    
Precipitation  
Precipitation 0.18 in 0.12 in 0.65 in (1959)
Month to date precipitation 0.18 0.12  
Year to date precipitation 24.69 18.94  
Snow  
Snow 0.00 in 0.00 in - ()
Month to date snowfall 0.0 0.0  
Since 1 June snowfall 0.0 0.0  
Since 1 July snowfall 0.0 0.0  
Snow Depth 0.00 in    
Sea Level Pressure  
Sea Level Pressure 29.95 in    
Wind  
Wind Speed 15 mph (NE)    
Max Wind Speed 23 mph    
Max Gust Speed 29 mph    
Visibility 8 miles    
Events Rain    
T = Trace of Precipitation, MM = Missing Value Source: NWS Daily Summary

Daily Weather History Graph

Daily Weather History Graph

Search for Another Location

Airport:

Trip Planner

Search our weather history database for the weather conditions in past years. The results will help you decide how hot, cold, wet, or windy it might be!

Date:

Astronomy

Jul. 01, 2013 Rise Set
Actual Time 5:48 AM EDT 9:00 PM EDT
Civil Twilight 5:14 AM EDT 9:34 PM EDT
Nautical Twilight 4:30 AM EDT 10:18 PM EDT
Astronomical Twilight 3:37 AM EDT 11:11 PM EDT
Moon 1:21 AM EDT (7/1) 3:10 PM EDT (7/1)
Length of Visible Light 16h 20m
Length of Day
15h 11m
Waning Crescent, 35% of the Moon is Illuminated
Jul 1
Waning Crescent
Jul 8
New
Jul 15
First Quarter
Jul 22
Full
Jul 29
Last Quarter

Hourly Weather History & Observations

Time (EDT) Temp. Dew Point Humidity Pressure Visibility Wind Dir Wind Speed Gust Speed Precip Events Conditions
12:51 AM 68.0 °F 62.1 °F 81% 29.89 in 10.0 mi ENE 6.9 mph - N/A   Clear
1:51 AM 68.0 °F 63.0 °F 84% 29.90 in 10.0 mi ENE 6.9 mph - N/A   Clear
2:51 AM 68.0 °F 63.0 °F 84% 29.88 in 10.0 mi NE 8.1 mph - N/A   Clear
3:51 AM 68.0 °F 64.0 °F 87% 29.88 in 10.0 mi NE 12.7 mph - N/A   Clear
4:02 AM 68.0 °F 64.4 °F 88% 29.88 in 10.0 mi NE 12.7 mph - N/A   Partly Cloudy
4:46 AM 68.0 °F 64.4 °F 88% 29.90 in 10.0 mi ENE 13.8 mph - N/A   Mostly Cloudy
4:51 AM 68.0 °F 63.0 °F 84% 29.88 in 10.0 mi NE 16.1 mph 21.9 mph N/A   Mostly Cloudy
5:44 AM 68.0 °F 62.6 °F 83% 29.91 in 10.0 mi ENE 12.7 mph - N/A   Scattered Clouds
5:51 AM 68.0 °F 63.0 °F 84% 29.90 in 10.0 mi NE 9.2 mph - N/A   Partly Cloudy
6:51 AM 68.0 °F 62.1 °F 81% 29.91 in 10.0 mi ENE 12.7 mph - N/A   Scattered Clouds
7:51 AM 68.0 °F 61.0 °F 78% 29.91 in 10.0 mi ENE 12.7 mph - N/A   Mostly Cloudy
8:51 AM 68.0 °F 61.0 °F 78% 29.93 in 10.0 mi NE 17.3 mph 21.9 mph N/A   Clear
9:51 AM 69.1 °F 62.1 °F 78% 29.93 in 10.0 mi NE 17.3 mph 23.0 mph N/A   Clear
10:51 AM 68.0 °F 63.0 °F 84% 29.94 in 9.0 mi NE 17.3 mph - N/A   Mostly Cloudy
11:05 AM 68.0 °F 62.6 °F 83% 29.95 in 8.0 mi NE 13.8 mph - N/A   Overcast
11:51 AM 66.9 °F 63.0 °F 87% 29.96 in 5.0 mi NE 13.8 mph - 0.01 in Rain Light Rain
12:35 PM 66.2 °F 62.6 °F 88% 29.97 in 3.0 mi NE 13.8 mph - 0.07 in Rain Light Rain
12:51 PM 66.0 °F 63.0 °F 90% 29.96 in 2.5 mi NE 15.0 mph - 0.09 in Rain Rain
12:58 PM 66.2 °F 64.4 °F 94% 29.97 in 2.5 mi ENE 16.1 mph - 0.02 in Rain Rain
1:17 PM 66.2 °F 64.4 °F 94% 29.96 in 3.0 mi NE 13.8 mph 21.9 mph 0.05 in Rain Light Rain
1:51 PM 66.9 °F 64.0 °F 90% 29.96 in 4.0 mi ENE 12.7 mph - 0.08 in Rain Light Rain
2:26 PM 66.2 °F 64.4 °F 94% 29.97 in 7.0 mi NE 17.3 mph 23.0 mph 0.00 in Rain Light Rain
2:51 PM 68.0 °F 64.0 °F 87% 29.96 in 7.0 mi NE 16.1 mph - 0.00 in   Overcast
3:40 PM 66.2 °F 62.6 °F 88% 29.97 in 8.0 mi NE 17.3 mph 23.0 mph N/A   Overcast
3:51 PM 66.9 °F 63.0 °F 87% 29.97 in 8.0 mi NE 17.3 mph 25.3 mph N/A   Overcast
4:11 PM 68.0 °F 62.6 °F 83% 29.98 in 9.0 mi NE 15.0 mph - N/A   Overcast
4:51 PM 68.0 °F 63.0 °F 84% 29.97 in 8.0 mi NE 12.7 mph - N/A   Mostly Cloudy
5:51 PM 66.0 °F 62.1 °F 87% 29.98 in 8.0 mi NE 15.0 mph 23.0 mph N/A   Overcast
6:12 PM 66.2 °F 60.8 °F 83% 29.99 in 7.0 mi NE 17.3 mph 26.5 mph N/A   Overcast
6:51 PM 66.0 °F 61.0 °F 84% 29.99 in 7.0 mi NE 18.4 mph 26.5 mph N/A   Overcast
7:51 PM 66.0 °F 61.0 °F 84% 30.00 in 7.0 mi ENE 16.1 mph 28.8 mph N/A   Overcast
8:51 PM 64.9 °F 61.0 °F 87% 30.01 in 6.0 mi NE 18.4 mph 25.3 mph N/A   Overcast
9:51 PM 64.9 °F 61.0 °F 87% 30.01 in 8.0 mi ENE 15.0 mph - N/A   Overcast
10:51 PM 64.9 °F 60.1 °F 84% 30.02 in 10.0 mi NE 15.0 mph - N/A   Overcast
11:51 PM 64.9 °F 60.1 °F 84% 30.02 in 10.0 mi NE 17.3 mph - N/A   Overcast